EHI
0 0 0 0 0 0 0 0 0 0 0 0 0 0 0 0 0 0 0 0 0 0 0 0 0 0 0 0 0 0 0 0 0 0 0 0 0 0 0 0 0 0 0 0 0 0 0 0 0
0 0 0 0 0 0 0 0 0 0 0 0 0 0 0 0 0 0 0 0 0 0 0 0 0 0 0 0 0 0 0 0 0 0 0 0 0 0 0 0 0 0 0 0 0 0 0 0 0
0 0 0 0 0 0 0 0 0 0 0 0 0 0 0 0 0 0 0 0 0 0 0 0 0 0 0 0 0 0 0 0 0 0 0 0 0 0 0 0 0 0 0 0 0 0 0 0 0
0 0 0 0 0 0 0 0 0 0 0 0 0 0 0 0 0 0 0 0 0 0 0 0 0 0 0 0 0 0 0 0 0 0 0 0 0 0 0 0 0 0 0 0 0 0 0 0 0
0 0 0 0 0 0 0 0 0 0 0 0 0 0 0 0 0 0 0 0 0 0 0 0 0 0 0 0 0 0 0 0 0 0 0 0 0 0 0 0 0 0 0 0 0 0 0 0 0
0 0 0 0 0 0 0 0 0 0 0 0 0 0 0 0 0 0 0 0 0 0 0 0 0 0 0 0 0 0 0 0 0 0 0 0 0 0 0 0 0 0 0 0 0 0 0 0 0
0 0 0 0 0 0 0 0 0 0 0 0 0 0 0 0 0 0 0 0 0 0 0 0 0 0 0 0 0 0 0 0 0 0 0 0 0 0 0 0 0 0 0 0 0 0 0 0 0
0 0 0 0 0 0 0 0 0 0 0 0 0 0 0 0 0 0 0 0 0 0 0 0 0 0 0 0 0 0 0 0 0 0 0 0 0 0 0 0 0 0 0 0 0 0 0 0 0
0 0 0 0 0 0 0 0 0 0 0 0 0 0 0 0 0 0 0 0 0 0 0 0 0 0 0 0 0 0 0 0 0 0 0 0 0 0 0 0 0 0 0 0 0 0 0 0 0
0 0 0 0 0 0 0 0 0 0 0 0 0 0 0 0 0 0 0 0 0 0 0 0 0 0 0 0 0 0 0 0 0 0 0 0 0 0 0 0 0 0 0 0 0 0 0 0 0
0 0 0 0 0 0 0 0 0 0 0 0 0 0 0 0 0 0 0 0 0 0 0 0 0 0 0 0 0 0 0 0 0 0 0 0 0 0 0 0 0 0 0 0 0 0 0 0 0
0 0 0 0 0 0 0 0 0 0 0 0 0 0 0 0 0 0 0 0 0 0 0 0 0 0 0 0 0 0 0 0 0 0 0 0 0 0 0 0 0 0 0 0 0 0 0 0 0
0 0 0 0 0 0 0 0 0 0 0 0 0 0 0 0 0 0 0 0 0 0 0 0 0 0 0 0 0 0 0 0 0 0 0 0 0 0 0 0 0 0 0 0 0 0 0 0 0
0 0 0 0 0 0 0 0 0 0 0 0 0 0 0 0 0 0 0 0 0 0 0 0 0 0 0 0 0 0 0 0 0 0 0 0 0 0 0 0 0 0 0 0 0 0 0 0 0
0 0 0 0 0 0 0 0 0 0 0 0 0 0 0 0 0 0 0 0 0 0 0 0 0 0 0 0 0 0 0 0 0 0 0 0 0 0 0 0 0 0 0 0 0 0 0 0 0
0 0 0 0 0 0 0 0 0 0 0 0 0 0 0 0 0 0 0 0 0 0 0 0 0 1 1 1 0 0 0 0 0 0 0 0 0 0 0 0 0 0 0 0 0 0 0 0 0
0 0 0 0 0 0 0 0 0 0 0 0 0 0 0 0 0 0 0 0 0 0 0 0 0 1 1 1 0 0 0 0 0 0 0 0 0 0 0 0 0 0 0 0 0 0 0 0 0
0 0 0 0 0 0 0 0 0 0 0 0 0 0 0 0 0 0 0 0 0 0 0 0 0 0 1 1 1 0 0 0 0 0 0 0 0 0 0 0 0 0 0 0 0 0 0 0 0
0 0 0 0 0 0 0 0 0 0 0 0 0 0 0 0 0 0 0 0 0 0 0 0 0 0 1 1 1 0 0 0 0 0 0 0 0 0 0 0 0 0 0 0 0 0 0 0 0
0 0 0 0 0 0 0 0 0 0 0 0 0 0 0 0 0 0 0 0 0 0 0 0 0 0 0 1 1 0 0 0 0 0 0 0 0 0 0 0 0 0 0 0 0 0 0 0 0
0 0 0 0 0 0 0 0 0 0 0 0 0 0 0 0 0 0 0 0 0 0 0 0 0 0 0 1 1 1 0 0 0 0 0 0 0 0 0 0 0 0 0 0 0 0 0 0 0
0 0 0 0 0 0 0 0 0 0 0 0 0 0 0 0 0 0 0 0 0 0 0 0 0 0 0 1 2 1 0 0 0 0 0 0 0 0 0 0 0 0 0 0 0 0 0 0 0
0 0 0 0 0 0 0 0 0 0 0 0 0 0 0 0 0 0 0 0 0 0 0 0 0 0 1 1 1 0 0 0 0 0 0 0 0 0 0 0 0 0 0 0 0 0 0 0 0
0 0 0 0 0 0 0 0 0 0 0 0 0 0 0 0 0 0 0 0 0 0 0 0 0 1 1 1 0 0 0 0 0 0 0 0 0 0 0 0 0 0 0 0 0 0 0 0 0
0 0 0 0 0 0 0 0 0 0 0 0 0 0 0 0 0 0 0 0 0 0 0 0 0 1 1 1 0 0 0 0 0 0 0 0 0 0 0 0 0 0 0 0 0 0 0 0 0
0 0 0 0 0 0 0 0 0 0 0 0 0 0 0 0 0 0 0 0 0 0 0 0 0 0 0 0 0 0 0 0 0 0 0 0 0 0 0 0 0 0 0 0 0 0 0 0 0
0 0 0 0 0 0 0 0 0 0 0 0 0 0 0 0 0 0 0 0 0 0 0 0 0 0 0 0 0 1 1 0 0 0 0 0 0 0 0 0 0 0 0 0 0 0 0 0 0
0 0 0 0 0 0 0 0 0 0 0 0 0 0 0 0 0 0 0 0 0 0 0 0 0 0 0 0 0 1 2 1 0 0 0 0 0 0 0 0 0 0 0 0 0 0 0 0 0
0 0 0 0 0 0 0 0 0 0 0 0 0 0 0 0 0 0 0 0 0 0 0 0 0 0 0 0 0 1 2 2 2 1 0 0 0 0 0 0 0 0 0 0 0 0 0 0 0
0 0 0 0 0 0 0 0 0 0 0 0 0 0 0 0 0 0 0 0 0 0 0 0 0 0 0 0 0 0 1 2 3 2 1 0 0 0 0 0 0 0 0 0 0 0 0 0 0
Wind_Speed
8 10 8 3 3 5 9 8 6 1 2 4 4 2 3 4 4 6 5 10 15 16 16 17 18 17 16 15 14 13 13 12 12 12 12 12 12 12 13 13 13 13 14 14 14 14 14 14 14
9 9 6 3 5 7 8 9 6 2 5 5 3 1 1 5 8 9 6 12 16 17 15 14 17 17 16 15 14 13 13 12 12 12 12 12 12 12 12 12 13 13 13 13 13 14 14 14 13
10 10 4 4 6 9 7 5 5 6 7 5 3 1 1 5 9 8 8 14 14 15 14 15 18 17 16 16 14 13 13 12 12 12 12 12 12 12 12 12 12 12 12 12 13 13 13 13 12
6 4 5 7 11 10 9 2 5 7 5 3 5 4 4 5 5 10 13 13 14 14 14 15 18 17 17 16 15 14 13 13 12 12 12 12 12 11 12 12 11 11 11 11 11 12 11 11 11
5 4 8 10 13 12 7 3 5 5 6 5 5 4 6 5 12 13 12 12 13 14 15 15 17 18 17 16 15 14 13 13 12 12 11 11 11 11 11 11 11 10 10 11 10 10 10 10 10
4 5 8 11 13 12 8 5 4 5 6 7 5 4 6 7 10 10 10 11 12 14 15 14 17 17 17 16 15 14 14 13 12 12 11 11 11 11 10 10 10 9 9 9 9 9 9 9 9
6 6 11 12 11 10 9 6 6 6 6 7 6 4 8 8 9 10 9 10 11 13 15 12 11 12 15 15 15 14 14 13 12 12 11 11 11 10 10 9 9 9 8 8 8 8 8 7 7
6 6 12 13 12 10 6 5 4 5 5 5 5 4 8 11 11 10 9 9 10 11 13 13 11 11 10 10 13 13 13 13 12 11 11 10 10 10 10 8 8 8 8 7 6 6 5 5 4
7 9 13 12 10 8 5 4 4 1 2 1 3 4 12 16 13 10 8 8 9 10 11 12 12 11 11 10 12 11 11 12 11 10 11 9 6 6 6 7 8 7 6 5 5 4 3 2 2
8 11 15 11 9 7 5 5 5 4 4 4 6 8 13 13 12 11 11 11 11 11 11 11 12 11 11 10 9 7 7 7 7 7 7 5 4 5 7 9 8 7 6 5 4 3 3 2 2
11 13 12 13 11 8 6 5 5 7 7 7 10 12 12 11 11 11 11 11 11 11 10 10 11 11 10 8 8 5 5 6 6 8 8 5 4 5 5 4 4 4 5 3 4 3 2 1 2
15 15 15 13 10 8 7 6 6 7 7 5 9 15 15 13 13 13 12 11 11 11 10 10 10 10 10 9 7 6 5 5 5 6 7 5 3 4 5 3 4 3 2 2 2 2 2 1 2
19 17 15 12 9 9 8 8 8 8 6 5 4 13 14 13 12 11 10 10 11 12 11 10 10 10 9 8 7 6 6 6 6 5 6 6 4 4 4 3 3 3 2 3 2 1 1 1 1
12 14 15 13 11 9 10 10 10 9 6 6 5 9 12 12 12 10 10 11 12 13 13 11 11 11 10 7 6 6 6 6 6 5 6 6 5 4 4 4 3 3 2 2 2 2 2 1 1
13 13 13 13 13 10 8 14 15 10 8 9 8 9 11 11 11 11 11 11 12 13 13 12 11 11 11 9 8 6 6 6 6 6 6 6 6 5 4 3 3 3 3 2 1 1 1 1 1
10 12 15 14 13 11 11 15 11 11 12 11 10 10 11 11 11 11 11 10 10 12 13 13 11 12 11 10 8 6 6 6 5 6 6 7 7 7 5 4 3 3 3 2 2 1 1 1 1
11 14 15 13 15 13 14 13 9 10 12 13 11 10 10 11 12 11 11 11 11 12 13 14 12 12 12 10 8 6 6 6 5 6 6 7 8 7 5 4 4 4 3 2 2 1 1 1 1
12 14 15 15 12 15 16 14 10 8 10 12 12 11 10 11 12 11 12 11 11 11 13 14 13 12 11 9 7 5 5 5 5 5 6 8 7 8 6 4 5 5 4 3 3 3 2 2 2
14 14 16 14 12 14 16 16 14 12 10 10 10 10 10 10 10 11 12 12 11 11 12 14 14 13 11 9 9 8 7 6 5 5 7 8 8 8 7 5 5 5 4 5 4 3 3 2 2
19 18 16 12 10 10 12 15 13 13 14 11 10 10 10 9 9 10 11 11 12 12 13 13 15 14 12 10 9 7 7 5 5 5 6 7 8 8 7 7 5 5 4 5 5 4 3 2 2
20 19 17 12 7 7 8 12 14 12 13 13 12 10 9 10 10 10 10 11 11 12 13 12 14 13 13 11 8 7 5 5 5 6 6 7 8 8 7 8 6 6 5 5 5 5 5 3 3
19 18 16 13 9 7 9 8 11 14 15 15 14 12 11 10 9 9 10 11 12 12 11 11 13 13 13 13 11 12 10 9 9 7 6 7 8 8 8 8 7 7 5 5 5 5 4 4 3
13 9 10 11 10 9 9 8 8 11 16 18 16 15 13 12 10 10 10 11 11 11 11 11 12 12 13 13 14 13 9 8 6 7 8 8 8 8 8 8 7 7 6 6 6 5 5 4 4
8 6 6 5 6 12 14 12 8 10 14 14 15 14 14 13 12 10 9 9 9 10 10 11 12 12 13 14 13 13 12 11 10 9 9 8 6 7 9 8 7 7 6 6 6 6 6 5 4
10 7 6 7 8 10 10 12 11 8 10 12 13 14 13 12 11 11 10 10 10 11 12 12 12 12 13 14 14 14 13 12 12 11 10 9 7 7 9 8 8 7 6 6 6 6 6 6 5
15 14 9 7 8 6 10 13 9 10 8 6 7 8 10 10 10 11 11 11 11 12 13 13 13 12 13 13 13 12 12 9 8 9 8 9 7 8 9 9 8 7 7 7 6 5 5 5 5
12 14 10 6 5 6 8 9 9 7 9 8 6 7 8 9 9 9 9 9 10 11 12 13 13 12 12 12 12 11 12 10 9 8 8 7 6 7 9 9 8 8 7 7 7 5 5 5 5
10 8 7 8 7 8 8 11 8 10 11 10 9 9 8 8 8 8 8 9 9 9 9 10 11 12 11 11 10 9 10 10 9 8 8 8 8 8 9 9 9 8 8 7 7 5 5 6 5
12 14 9 7 7 5 5 6 6 9 11 12 11 10 10 9 8 8 7 8 8 8 8 8 9 9 10 10 10 10 9 9 9 8 8 8 8 9 9 9 9 9 8 8 7 6 6 6 5
9 11 13 9 8 7 5 4 1 2 5 8 9 8 8 8 8 7 7 7 8 9 9 9 9 9 9 9 9 9 9 9 9 8 8 8 8 8 9 9 9 8 8 8 8 7 7 7 6
Wind_Direction
262 247 233 237 238 235 242 245 251 150 79 64 55 25 21 42 46 112 161 140 127 133 139 147 146 143 139 133 128 126 119 115 110 105 100 97 93 91 89 86 82 80 77 75 74 72 72 70 70
270 248 235 236 239 234 237 229 238 155 106 86 77 57 75 80 90 115 146 130 133 134 141 146 146 145 142 137 133 129 124 119 114 110 106 102 98 95 92 88 85 82 80 78 76 73 72 71 70
264 255 237 230 236 238 246 202 170 110 109 127 146 186 68 95 115 131 133 131 133 135 142 141 147 146 144 140 137 133 128 124 119 115 110 106 102 98 94 91 88 85 83 80 78 76 74 72 69
245 231 242 244 244 241 253 251 114 120 128 166 165 144 89 49 97 118 128 136 135 135 135 142 149 147 144 142 140 137 133 129 125 120 114 110 106 101 96 93 91 88 86 83 81 79 76 72 69
236 238 231 242 248 256 254 239 134 151 156 186 209 147 104 77 96 118 137 141 139 137 134 146 151 149 147 146 144 142 138 134 130 126 120 116 112 107 103 99 95 93 89 86 83 80 76 70 66
225 231 231 234 240 244 243 235 175 185 180 180 202 171 113 123 119 136 143 142 139 136 136 147 153 151 150 149 148 145 143 139 136 132 128 123 119 115 110 106 101 97 92 88 86 84 78 72 65
235 242 248 247 242 236 225 211 197 194 200 183 185 170 127 140 134 142 145 144 137 135 138 147 153 153 153 152 151 150 148 145 142 139 135 130 127 123 117 112 107 101 95 90 87 84 80 73 65
241 256 252 249 250 248 226 210 206 205 210 176 175 182 147 144 140 144 146 142 137 139 144 153 157 157 155 152 153 152 151 149 147 140 135 133 134 131 125 119 115 108 102 97 93 91 87 83 76
246 243 242 239 242 249 234 211 205 227 260 200 111 53 124 134 141 143 145 143 144 151 152 158 161 160 159 158 156 153 152 150 144 139 140 142 149 143 133 123 126 124 119 116 113 115 121 126 155
215 232 238 247 255 257 236 214 193 178 216 200 114 96 117 137 148 155 161 164 162 165 164 162 163 162 161 160 153 158 158 153 158 155 159 172 165 144 136 134 142 147 148 149 159 183 212 205 184
218 230 245 253 263 277 267 237 209 192 211 203 160 145 146 156 162 169 174 174 170 169 169 165 164 162 159 152 158 162 159 162 176 166 174 173 148 137 133 144 147 162 172 178 188 207 224 184 136
237 234 236 247 259 265 266 258 242 221 217 208 169 156 159 171 177 181 181 177 170 170 172 169 164 160 160 156 162 161 159 167 173 167 171 162 151 149 147 154 164 175 173 169 170 211 193 138 118
236 242 243 242 243 254 259 252 249 246 229 239 167 154 167 179 184 186 183 176 170 172 172 173 166 162 161 157 161 164 163 166 167 164 170 161 153 155 150 154 158 168 160 159 185 211 147 110 84
240 239 242 243 239 237 245 250 243 242 235 227 190 167 178 186 188 185 184 181 177 175 174 174 170 165 161 161 164 166 164 161 161 161 172 163 156 154 152 157 160 167 164 159 187 175 134 117 105
252 252 247 237 231 227 235 243 235 231 230 227 204 186 187 191 191 191 187 185 181 175 173 175 174 169 165 166 170 167 164 162 162 164 172 168 161 157 159 162 162 170 162 162 163 146 113 121 116
239 239 241 233 227 220 218 241 225 215 222 229 216 199 190 195 195 193 188 185 180 172 172 175 176 173 170 170 171 168 169 165 165 163 169 172 169 164 162 164 168 167 157 156 149 147 125 125 119
227 229 230 228 219 216 219 240 229 212 213 222 221 211 196 193 197 194 189 185 180 175 172 173 173 175 173 170 168 169 170 170 166 163 168 176 172 167 163 169 170 165 159 162 163 157 147 151 163
211 224 231 227 215 215 223 234 231 222 219 219 218 213 206 198 196 191 185 183 179 176 172 172 173 176 170 165 165 168 173 174 169 168 173 173 172 170 167 168 174 168 159 167 170 170 169 169 180
240 235 235 235 221 219 227 234 228 221 229 230 220 213 209 205 195 188 183 178 174 173 172 173 173 177 171 171 174 177 183 179 176 178 180 177 174 174 172 170 175 171 169 176 176 166 173 186 156
241 249 249 249 234 225 233 239 234 223 221 226 225 217 209 206 199 190 181 176 175 176 177 176 176 177 176 176 175 176 173 176 177 176 184 184 180 177 177 174 175 172 169 174 178 168 167 179 162
234 239 243 246 249 248 256 251 238 232 226 223 223 220 212 207 201 190 181 176 173 176 178 179 177 176 176 168 162 162 162 169 180 185 188 191 186 181 177 180 174 175 173 180 184 177 172 179 191
232 232 241 247 245 238 218 250 232 221 223 224 221 216 212 211 205 192 183 178 176 177 175 177 177 176 175 169 172 175 181 186 190 184 183 183 188 188 182 181 179 177 176 177 183 179 175 167 183
233 234 243 245 248 257 235 246 246 214 219 217 216 213 207 204 201 195 186 180 176 172 172 176 175 176 175 175 178 182 187 187 178 178 181 184 187 190 188 184 181 180 180 180 180 178 181 180 177
225 230 251 258 245 243 228 232 250 218 220 212 209 207 202 196 194 192 184 172 170 168 168 172 174 177 177 178 181 185 186 183 180 182 184 185 183 187 190 187 184 184 181 182 181 180 181 185 183
202 188 199 205 216 234 211 224 240 225 219 213 204 200 195 189 186 186 182 177 174 169 171 174 176 179 179 180 185 188 189 188 188 185 185 184 183 185 189 186 187 186 183 179 174 176 182 183 184
202 198 202 203 208 220 202 224 235 217 224 224 201 188 182 184 184 184 182 177 175 174 173 176 179 180 180 183 188 188 187 189 191 186 182 184 184 184 181 184 184 183 180 178 175 177 181 181 187
200 209 225 258 267 244 216 220 222 210 206 208 197 180 182 184 183 179 177 173 172 173 175 177 178 179 182 183 183 185 185 186 187 183 176 177 176 173 176 179 180 183 181 178 175 181 181 177 184
211 194 198 212 215 235 236 223 215 195 201 196 194 191 192 186 182 177 174 173 170 170 169 171 175 178 178 179 182 184 184 184 181 177 178 174 174 172 173 177 179 181 181 178 176 176 178 180 186
197 203 206 209 230 216 229 237 213 194 192 191 194 192 190 182 176 175 175 169 162 159 162 168 172 172 175 178 179 177 179 178 176 177 177 174 172 170 172 175 177 179 178 176 179 182 177 181 183
221 212 206 205 213 224 239 255 278 159 175 182 189 189 181 176 173 170 166 160 157 161 165 169 173 174 175 174 173 174 173 172 176 178 175 169 167 169 171 171 174 177 176 176 179 179 177 182 185